TimeMDT,TemperatureF,Dew PointF,Humidity,Sea Level PressureIn,VisibilityMPH,Wind Direction,Wind SpeedMPH,Gust SpeedMPH,PrecipitationIn,Events,Conditions,WindDirDegrees,DateUTC
12:56 AM,62.1,53.1,72,29.83,10.0,ESE,6.9,-,0.01,,Mostly Cloudy,110,2013-08-24 06:56:00
1:56 AM,60.1,55.0,83,29.83,10.0,NW,3.5,-,N/A,,Mostly Cloudy,320,2013-08-24 07:56:00
2:56 AM,60.1,55.0,83,29.85,10.0,ESE,3.5,-,0.00,,Overcast,110,2013-08-24 08:56:00
3:56 AM,60.1,55.0,83,29.88,10.0,Calm,Calm,-,N/A,,Clear,0,2013-08-24 09:56:00
4:56 AM,62.1,53.1,72,29.88,10.0,SSE,3.5,-,N/A,,Clear,160,2013-08-24 10:56:00
5:56 AM,57.0,54.0,89,29.89,10.0,Calm,Calm,-,N/A,,Partly Cloudy,0,2013-08-24 11:56:00
6:56 AM,57.0,53.1,87,29.90,10.0,Calm,Calm,-,N/A,,Partly Cloudy,0,2013-08-24 12:56:00
7:56 AM,57.9,54.0,87,29.91,10.0,Calm,Calm,-,N/A,,Clear,0,2013-08-24 13:56:00
8:56 AM,62.1,55.9,80,29.93,10.0,Calm,Calm,-,N/A,,Clear,0,2013-08-24 14:56:00
9:56 AM,64.0,55.0,73,29.94,10.0,Calm,Calm,-,N/A,,Clear,0,2013-08-24 15:56:00
10:56 AM,70.0,54.0,57,29.92,10.0,Calm,Calm,-,N/A,,Clear,0,2013-08-24 16:56:00
11:56 AM,70.0,51.1,51,29.91,10.0,Calm,Calm,-,N/A,,Clear,0,2013-08-24 17:56:00
12:56 PM,75.9,51.1,42,29.88,10.0,Calm,Calm,-,N/A,,Clear,0,2013-08-24 18:56:00
1:56 PM,80.1,50.0,35,29.86,10.0,Variable,3.5,-,N/A,,Clear,0,2013-08-24 19:56:00
2:56 PM,81.0,44.1,27,29.84,10.0,Calm,Calm,-,N/A,,Clear,0,2013-08-24 20:56:00
3:56 PM,84.0,41.0,22,29.81,10.0,ENE,5.8,-,N/A,,Clear,70,2013-08-24 21:56:00
4:56 PM,79.0,46.0,31,29.80,10.0,Calm,Calm,-,N/A,,Clear,0,2013-08-24 22:56:00
5:56 PM,77.0,46.0,33,29.84,9.0,South,13.8,-,0.00,,Clear,180,2013-08-24 23:56:00
6:56 PM,73.9,39.0,28,29.88,10.0,South,24.2,32.2,N/A,,Mostly Cloudy,180,2013-08-25 00:56:00
7:56 PM,68.0,44.1,42,29.94,10.0,South,23.0,38.0,N/A,,Scattered Clouds,190,2013-08-25 01:56:00
8:56 PM,63.0,50.0,63,30.01,10.0,South,13.8,21.9,0.00,Rain,Light Rain,180,2013-08-25 02:56:00
9:56 PM,61.0,51.1,70,30.02,10.0,ESE,6.9,-,0.01,Rain,Light Rain,110,2013-08-25 03:56:00
10:56 PM,62.1,51.1,67,29.98,10.0,South,10.4,-,0.00,,Overcast,180,2013-08-25 04:56:00
11:56 PM,62.1,48.0,60,29.96,10.0,South,9.2,-,N/A,,Clear,190,2013-08-25 05:56:00